[[{"header":{"parameterUnit":"m.s-1","parameterCategory":1,"la1":30.2991,"la2":30.254,"lo1":-89.0895,"lo2":-89.0444,"dy":0.0017,"dx":0.0017,"nx":28,"ny":28,"refTime":"2025-12-31T09:00:00:Z","depth":0,"parameterNumber":2,"parameterNumberName":"U-component_of_WINDS"},"data":[0,0,0,0,0,0,0,0,0,0,0,0,0,0,0,0,0,0,0,0,0,0,0,0,0,0,0,0,0,0,0,0,0,0,0,0,0,0,0,0,0,0,0,0,0,0,0,0,0,0,0,0,0,0,0,0,0,0,1.8441,1.8441,0,1.842,1.842,1.842,1.8409,1.8409,1.8409,1.8409,1.8385,1.8384,1.8384,0,0,0,0,0,0,0,0,0,0,0,0,0,1.8471,1.8471,1.8441,1.8441,1.8441,1.842,1.842,1.842,1.8409,1.8409,1.8409,1.8409,1.8385,1.8384,1.8384,0,0,0,0,0,0,0,0,0,0,0,0,0,1.8455,1.8471,1.8441,1.8433,1.8432,1.842,1.842,1.8419,1.8409,1.8409,1.8409,1.8409,1.8385,1.8385,1.8384,1.8377,0,0,1.8381,1.838,0,0,0,0,0,0,0,0,1.8456,1.8454,1.8435,1.8434,1.8433,1.8417,1.8421,1.8405,1.8409,1.8418,1.8409,1.8409,1.8396,1.8394,1.839,1.8376,1.8375,1.838,1.838,1.8379,1.8379,0,0,0,0,0,0,0,1.8457,1.8455,1.8433,1.8434,1.8433,1.843,1.8428,1.8418,1.8407,1.8417,1.8416,1.8414,1.8395,1.8391,1.8389,1.8375,1.838,1.838,1.8379,1.8379,1.8355,1.8355,0,0,0,0,0,0,1.846,1.8456,1.8433,1.8432,1.8445,1.843,1.8427,1.8422,1.8407,1.8405,1.8414,1.8414,1.8392,1.839,1.8388,1.838,1.8379,1.8378,1.8378,1.8355,1.8355,1.8355,0,0,0,0,0,0,1.846,1.8458,1.8434,1.8444,1.844,1.8429,1.8424,1.8422,1.8417,1.8405,1.8402,1.8412,1.8392,1.839,1.838,1.8379,1.8378,1.8377,1.8356,1.8355,1.8355,1.8363,0,0,0,0,0,0,1.8461,1.8458,1.8456,1.8444,1.844,1.8427,1.8424,1.8421,1.8416,1.8415,1.8402,1.84,1.8392,1.8382,1.8379,1.8378,1.8376,1.8356,1.8355,1.8355,1.8363,1.8364,1.8364,0,0,0,0,0,1.8462,1.8458,1.8456,1.8453,1.8437,1.8427,1.8425,1.8417,1.8416,1.8413,1.8406,1.84,1.838,1.8381,1.8378,1.8376,1.8356,1.8356,1.8355,1.8363,1.8364,1.8364,0,0,0,0,0,0,1.8469,1.8456,1.8453,1.8445,1.8438,1.8425,1.8422,1.8418,1.8409,1.8409,1.8399,1.8396,1.8388,1.8381,1.8382,1.837,1.8367,1.8367,1.8374,1.8374,1.8375,1.8376,1.8376,0,0,0,0,0,1.8469,1.8463,1.8452,1.8446,1.8443,1.8433,1.8428,1.8423,1.8414,1.8411,1.8402,1.8393,1.8385,1.8379,1.8371,1.8363,1.836,1.836,1.836,1.8361,1.836,1.8356,1.8356,1.8355,1.8355,1.8355,0,0,1.847,1.8463,1.8459,1.8447,1.8441,1.8434,1.843,1.8423,1.8418,1.8409,1.84,1.8394,1.8383,1.8375,1.8371,1.8369,1.836,1.8361,1.8361,1.836,1.8356,1.8356,1.8356,1.8355,1.8355,1.8355,0,0,1.8468,1.8462,1.8456,1.845,1.8441,1.8435,1.8434,1.8423,1.8419,1.841,1.8404,1.8397,1.8383,1.8376,1.8371,1.8368,1.8363,1.8366,1.8367,1.8363,1.8364,1.8364,1.8363,1.8362,1.8365,1.8365,1.8365,0,1.847,1.846,1.8454,1.8448,1.8443,1.8436,1.8431,1.8425,1.8413,1.8409,1.8408,1.8391,1.8383,1.8374,1.8373,1.8369,1.8367,1.8367,1.8364,1.8364,1.8364,1.8363,1.8363,1.8366,1.8366,1.8366,1.8366,0,1.8463,1.8457,1.8453,1.8443,1.8438,1.8432,1.8424,1.842,1.8416,1.841,1.8401,1.8392,1.8383,1.838,1.8375,1.837,1.8369,1.8366,1.8364,1.8365,1.8363,1.8363,1.8366,1.8366,1.8366,1.8366,0,0,1.8463,1.8451,1.845,1.8445,1.8436,1.843,1.8424,1.8416,1.8412,1.8405,1.8399,1.8388,1.8386,1.838,1.8375,1.8371,1.837,1.8369,1.8368,1.8369,1.8364,1.8366,1.8365,1.8368,1.8367,1.8367,1.8365,0,1.8459,1.8449,1.8443,1.8435,1.8429,1.8424,1.8419,1.8412,1.8407,1.8401,1.8395,1.8387,1.8385,1.8382,1.8378,1.8371,1.8369,1.8371,1.8362,1.8361,1.8364,1.8365,1.8366,1.8364,1.8364,1.8364,1.8364,0,1.8453,1.8447,1.8438,1.843,1.8428,1.8423,1.8416,1.841,1.8403,1.8399,1.8393,1.8389,1.8382,1.8381,1.8372,1.8374,1.837,1.8366,1.8366,1.8363,1.8362,1.8362,1.8363,1.8363,1.8364,1.8364,1.8364,0,1.8453,1.8443,1.8437,1.8433,1.8424,1.8421,1.8417,1.841,1.8405,1.8399,1.8396,1.8388,1.8384,1.8378,1.8371,1.8371,1.8363,1.8361,1.8359,1.8359,1.8356,1.8357,1.8356,1.8355,1.8355,1.8355,1.8355,0,1.8449,1.8444,1.8437,1.8433,1.8427,1.8422,1.8416,1.8411,1.8405,1.84,1.8395,1.8391,1.8383,1.8377,1.8372,1.8365,1.8363,1.836,1.8358,1.836,1.836,1.8356,1.8356,1.8355,1.8355,1.8355,1.8355,0,1.8448,1.8443,1.8436,1.8429,1.8427,1.8423,1.8416,1.8412,1.8407,1.8401,1.8399,1.8392,1.8385,1.8378,1.8368,1.8365,1.8358,1.8357,1.8361,1.836,1.8359,1.8359,1.8355,1.8355,1.8355,1.8355,1.8355,0,1.8446,1.8442,1.8434,1.8431,1.8427,1.8422,1.8418,1.8413,1.8409,1.8401,1.8398,1.8391,1.8385,1.8375,1.8368,1.8361,1.8359,1.8358,1.8357,1.8359,1.8358,1.8358,1.8358,1.8358,1.8358,1.8358,1.8358,0,1.8441,1.844,1.8434,1.8429,1.8425,1.842,1.8415,1.8412,1.8406,1.8402,1.8395,1.8391,1.8382,1.8375,1.8368,1.8363,1.8359,1.8359,1.8358,1.8359,1.8361,1.836,1.8361,1.8358,1.8358,1.8358,1.8358,1.8358,1.8439,1.8436,1.843,1.8425,1.8421,1.8417,1.8413,1.8409,1.8404,1.8397,1.8394,1.8388,1.8381,1.8371,1.8367,1.8362,1.836,1.8359,1.8359,1.8358,1.8359,1.8363,1.836,1.836,1.836,1.836,1.836,0,1.8434,1.8431,1.8426,1.842,1.8416,1.8415,1.8409,1.8406,1.8401,1.8396,1.8391,1.8384,1.8378,1.8371,1.8365,1.8362,1.836,1.836,1.836,1.8359,1.836,1.8361,1.8362,1.8362,1.8362,1.8362,1.8362,1.8362,1.8431,1.8426,1.8424,1.8416,1.8413,1.8408,1.8405,1.8401,1.8397,1.839,1.8385,1.8382,1.8376,1.837,1.8364,1.8362,1.836,1.8361,1.8358,1.8359,1.8359,1.8359,1.836,1.836,1.836,1.8358,1.8358,1.8358]},{"header":{"parameterUnit":"m.s-1","parameterCategory":1,"la1":30.2991,"la2":30.254,"lo1":-89.0895,"lo2":-89.0444,"dy":0.0017,"dx":0.0017,"nx":28,"ny":28,"refTime":"2025-12-31T09:00:00:Z","depth":0,"parameterNumber":3,"parameterNumberName":"V-component_of_WINDS"},"data":[0,0,0,0,0,0,0,0,0,0,0,0,0,0,0,0,0,0,0,0,0,0,0,0,0,0,0,0,0,0,0,0,0,0,0,0,0,0,0,0,0,0,0,0,0,0,0,0,0,0,0,0,0,0,0,0,0,0,-5.0823,-5.0825,0,-5.1028,-5.103,-5.1032,-5.0971,-5.0967,-5.0963,-5.0958,-5.1167,-5.1177,-5.1186,0,0,0,0,0,0,0,0,0,0,0,0,0,-5.0377,-5.0385,-5.0822,-5.0825,-5.0828,-5.1027,-5.103,-5.1033,-5.0972,-5.0967,-5.0961,-5.0957,-5.1164,-5.1175,-5.1187,0,0,0,0,0,0,0,0,0,0,0,0,0,-5.0575,-5.0388,-5.0822,-5.0821,-5.0823,-5.1027,-5.103,-5.1033,-5.0973,-5.0966,-5.096,-5.0954,-5.116,-5.1174,-5.1188,-5.1405,0,0,-5.1232,-5.1238,0,0,0,0,0,0,0,0,-5.0564,-5.0591,-5.0819,-5.0822,-5.0824,-5.0967,-5.0949,-5.1158,-5.0974,-5.0916,-5.0958,-5.0951,-5.1106,-5.1124,-5.1177,-5.1414,-5.1423,-5.1233,-5.1242,-5.1248,-5.1252,0,0,0,0,0,0,0,-5.055,-5.0582,-5.0903,-5.0822,-5.0826,-5.081,-5.0831,-5.0989,-5.1044,-5.0921,-5.0917,-5.0942,-5.1106,-5.1163,-5.1181,-5.1426,-5.1233,-5.1246,-5.1255,-5.126,-5.1851,-5.1858,0,0,0,0,0,0,-5.0535,-5.0571,-5.0897,-5.091,-5.0676,-5.0823,-5.0847,-5.0928,-5.1042,-5.1054,-5.0947,-5.0938,-5.1142,-5.1164,-5.1188,-5.1449,-5.1248,-5.1262,-5.127,-5.1844,-5.1853,-5.186,0,0,0,0,0,0,-5.0525,-5.0564,-5.0889,-5.074,-5.078,-5.0838,-5.0929,-5.0935,-5.0992,-5.1062,-5.1072,-5.0995,-5.1138,-5.1168,-5.1351,-5.1455,-5.1268,-5.1281,-5.1836,-5.1847,-5.1857,-5.1971,0,0,0,0,0,0,-5.0513,-5.0561,-5.0645,-5.0742,-5.0788,-5.1049,-5.0935,-5.0944,-5.1017,-5.1007,-5.111,-5.1121,-5.1135,-5.133,-5.1366,-5.1471,-5.1292,-5.1827,-5.1841,-5.1853,-5.1959,-5.1985,-5.2007,0,0,0,0,0,-5.0497,-5.0669,-5.0649,-5.0689,-5.0893,-5.1055,-5.1082,-5.1095,-5.1026,-5.1109,-5.1154,-5.1118,-5.1438,-5.135,-5.1389,-5.15,-5.182,-5.1837,-5.1852,-5.1948,-5.1979,-5.2006,0,0,0,0,0,0,-5.0582,-5.0681,-5.0661,-5.0869,-5.0954,-5.1045,-5.1151,-5.1128,-5.1234,-5.1221,-5.1232,-5.1256,-5.1443,-5.149,-5.139,-5.1715,-5.1619,-5.1643,-5.1678,-5.1709,-5.1733,-5.1717,-5.1304,0,0,0,0,0,-5.0625,-5.0749,-5.0829,-5.1004,-5.1048,-5.1093,-5.1164,-5.1166,-5.1255,-5.129,-5.1349,-5.1436,-5.1556,-5.1635,-5.1749,-5.1965,-5.1986,-5.2061,-5.2085,-5.2104,-5.2126,-5.2243,-5.2277,-5.1913,-5.1913,-5.1913,0,0,-5.0715,-5.0784,-5.0862,-5.1023,-5.109,-5.1217,-5.1123,-5.1262,-5.1357,-5.1311,-5.1488,-5.1534,-5.1632,-5.1832,-5.1923,-5.1877,-5.2231,-5.2125,-5.214,-5.2151,-5.2263,-5.2297,-5.2328,-5.1924,-5.1922,-5.192,0,0,-5.0944,-5.1009,-5.1162,-5.1231,-5.1332,-5.1361,-5.1397,-5.1492,-5.1521,-5.1698,-5.1667,-5.1779,-5.1986,-5.2057,-5.212,-5.2375,-5.2345,-5.2412,-5.2538,-5.2652,-5.2681,-5.2706,-5.2797,-5.283,-5.2433,-5.2433,-5.2433,0,-5.1042,-5.1234,-5.1244,-5.1386,-5.1458,-5.1423,-5.1578,-5.1644,-5.1778,-5.1828,-5.1774,-5.2032,-5.2096,-5.2312,-5.2374,-5.2427,-5.2469,-5.24,-5.2676,-5.2702,-5.2726,-5.2812,-5.2847,-5.2441,-5.244,-5.2439,-5.2438,0,-5.135,-5.1483,-5.1595,-5.1725,-5.1809,-5.1957,-5.199,-5.2074,-5.2069,-5.2102,-5.2283,-5.2358,-5.2487,-5.2538,-5.2535,-5.2754,-5.2722,-5.2673,-5.2576,-5.2768,-5.2849,-5.2883,-5.2451,-5.2449,-5.2446,-5.2445,0,0,-5.1639,-5.1772,-5.1813,-5.1872,-5.1981,-5.2084,-5.223,-5.2356,-5.2428,-5.2521,-5.2643,-5.2819,-5.2774,-5.2845,-5.2849,-5.295,-5.3147,-5.2887,-5.289,-5.2933,-5.3392,-5.3429,-5.3467,-5.3127,-5.3134,-5.3139,-5.3384,0,-5.1877,-5.2134,-5.2147,-5.2381,-5.2503,-5.2472,-5.2598,-5.2679,-5.2714,-5.2823,-5.2862,-5.2986,-5.2917,-5.296,-5.3057,-5.3102,-5.3239,-5.3084,-5.3241,-5.3246,-5.3217,-5.351,-5.355,-5.3778,-5.3416,-5.3421,-5.3425,0,-5.2189,-5.2292,-5.2538,-5.2629,-5.2681,-5.2795,-5.2912,-5.3016,-5.3107,-5.3125,-5.3205,-5.3195,-5.3344,-5.3242,-5.3447,-5.3342,-5.3406,-5.3438,-5.3447,-5.3462,-5.3347,-5.3533,-5.3851,-5.3885,-5.3476,-5.3472,-5.3468,0,-5.2375,-5.2575,-5.2748,-5.2799,-5.291,-5.299,-5.304,-5.3124,-5.3199,-5.3301,-5.3349,-5.3467,-5.3532,-5.3623,-5.3644,-5.3568,-5.3849,-5.3749,-5.3868,-5.3868,-5.3929,-5.3925,-5.4262,-5.3971,-5.397,-5.397,-5.3969,0,-5.2639,-5.2791,-5.2832,-5.2939,-5.3107,-5.3121,-5.3287,-5.3332,-5.3407,-5.3521,-5.35,-5.3607,-5.3629,-5.3741,-5.3759,-5.3926,-5.3955,-5.3974,-5.3977,-5.3976,-5.3973,-5.4018,-5.4003,-5.3979,-5.3977,-5.3975,-5.3973,0,-5.2876,-5.291,-5.3096,-5.3185,-5.3211,-5.3332,-5.3408,-5.351,-5.3542,-5.3687,-5.3721,-5.3772,-5.3903,-5.3933,-5.4088,-5.41,-5.4298,-5.4285,-5.4267,-5.4267,-5.4384,-5.4373,-5.4761,-5.4813,-5.4488,-5.4492,-5.4494,0,-5.3042,-5.3158,-5.326,-5.3335,-5.3389,-5.351,-5.3586,-5.3603,-5.3683,-5.3795,-5.3883,-5.4011,-5.4115,-5.4324,-5.4375,-5.4493,-5.4483,-5.4611,-5.4501,-5.4497,-5.4485,-5.4478,-5.449,-5.4633,-5.4636,-5.4639,-5.4641,0,-5.3335,-5.3346,-5.3456,-5.3574,-5.3665,-5.3758,-5.3847,-5.3909,-5.3938,-5.4029,-5.4163,-5.4243,-5.4401,-5.4528,-5.4647,-5.4698,-5.4675,-5.4675,-5.4709,-5.471,-5.4695,-5.4704,-5.4325,-5.4667,-5.4664,-5.4662,-5.4661,-5.466,-5.3541,-5.3643,-5.373,-5.3854,-5.3922,-5.4006,-5.4106,-5.415,-5.4262,-5.4392,-5.4395,-5.4541,-5.4627,-5.4784,-5.4842,-5.4955,-5.4916,-5.4965,-5.4978,-5.4989,-5.5,-5.4677,-5.4977,-5.4976,-5.4976,-5.4975,-5.4975,0,-5.3833,-5.3887,-5.4001,-5.4126,-5.4223,-5.4193,-5.4289,-5.4372,-5.4501,-5.4583,-5.4685,-5.4838,-5.4961,-5.5021,-5.5143,-5.5222,-5.5215,-5.5254,-5.5248,-5.526,-5.5028,-5.4987,-5.5258,-5.5258,-5.5258,-5.5258,-5.5258,-5.5257,-5.3996,-5.4165,-5.4187,-5.439,-5.4443,-5.4585,-5.4643,-5.4719,-5.4785,-5.4957,-5.5059,-5.5097,-5.5171,-5.5298,-5.5409,-5.5424,-5.5469,-5.5514,-5.5523,-5.5305,-5.5277,-5.5249,-5.521,-5.5524,-5.5524,-5.5746,-5.5748,-5.5749]}]]